CW5193 New Chelsea NF CA current weather conditions

sailwx.info

Wind from 280 at 6 knots gusting 14

Air temperature 14.4° C
Dewpoint 12.5° C

Last reported at 2015-Jul-28 20:52 UTC.
Time now 2015-Jul-28 21:52 UTC

Location: N 48°02' W 053°13'.
View on Google Maps.

See reports from other nearby stations

  
Tides and Currents Weather Stations Pressure Air Temp Water Temp Dewpoint Dewpoint Depression Visibility Wind Speed Wind Dir Waves Ship Positions
date/time (UTC)wind fromknots sea level pressurealtimeterstation pressurevisibilityair tempwater tempwave heightnotes
2015-Jul-28 20:52 280 6 gusting 14 14.4
2015-Jul-28 20:42 258 4 gusting 12 14.4
2015-Jul-28 20:32 262 8 gusting 18 14.4
2015-Jul-28 20:22 225 9 gusting 13 14.4
2015-Jul-28 20:12 244 9 gusting 15 13.9
2015-Jul-28 20:02 250 9 gusting 17 13.9
2015-Jul-28 19:52 242 11 gusting 18 13.9
2015-Jul-28 19:42 254 9 gusting 16 14.4
2015-Jul-28 19:32 272 7 gusting 14 15.0
2015-Jul-28 19:22 248 6 gusting 17 15.0
2015-Jul-28 19:12 223 9 gusting 16 15.0
2015-Jul-28 19:02 246 12 gusting 20 15.0
2015-Jul-28 18:52 256 13 gusting 21 15.6
2015-Jul-28 18:42 254 11 gusting 19 15.6
2015-Jul-28 18:32 256 15 gusting 22 15.0
2015-Jul-28 18:22 249 10 gusting 17 16.1
2015-Jul-28 18:12 259 6 gusting 16 16.1
2015-Jul-28 18:02 203 12 gusting 16 16.1
2015-Jul-28 17:52 221 15 gusting 19 16.1
2015-Jul-28 17:42 249 9 gusting 20 16.7
2015-Jul-28 17:32 231 10 gusting 19 16.7
2015-Jul-28 17:22 229 11 gusting 19 16.1
2015-Jul-28 17:12 261 12 gusting 19 16.1
2015-Jul-28 17:02 269 12 gusting 19 16.1
2015-Jul-28 16:52 266 13 gusting 20 16.1
2015-Jul-28 16:42 248 10 gusting 19 16.1
2015-Jul-28 16:32 257 14 gusting 20 15.6
2015-Jul-28 16:22 268 13 gusting 19 16.1
2015-Jul-28 16:12 219 9 gusting 19 16.1
2015-Jul-28 16:02 232 13 gusting 21 16.1
2015-Jul-28 15:52 251 14 gusting 19 15.6
2015-Jul-28 15:42 260 7 gusting 19 15.6
2015-Jul-28 15:32 261 9 gusting 19 16.1
2015-Jul-28 15:22 234 10 gusting 19 16.1
2015-Jul-28 15:12 225 14 gusting 20 16.1
2015-Jul-28 15:02 258 11 gusting 19 16.1
2015-Jul-28 14:52 246 13 gusting 20 16.1
2015-Jul-28 14:42 249 13 gusting 19 15.6
2015-Jul-28 14:32 269 10 gusting 19 15.6
2015-Jul-28 14:22 252 8 gusting 19 15.6
2015-Jul-28 14:12 245 11 gusting 19 16.1
2015-Jul-28 14:02 244 11 gusting 19 16.1
2015-Jul-28 13:52 246 9 gusting 22 15.6
2015-Jul-28 13:42 244 12 gusting 23 15.6
2015-Jul-28 13:32 234 14 gusting 23 15.0
2015-Jul-28 13:22 239 13 gusting 22 15.0
2015-Jul-28 13:12 273 14 gusting 21 14.4
2015-Jul-28 13:02 263 14 gusting 23 14.4
2015-Jul-28 12:52 234 11 gusting 20 14.4
2015-Jul-28 12:42 209 9 gusting 19 13.9
2015-Jul-28 12:32 279 9 gusting 23 13.9
2015-Jul-28 12:22 227 11 gusting 23 14.4
2015-Jul-28 12:12 252 10 gusting 20 15.0
2015-Jul-28 12:02 219 14 gusting 24 14.4
2015-Jul-28 11:52 229 11 gusting 19 13.9
2015-Jul-28 11:42 259 14 gusting 20 13.9
2015-Jul-28 11:32 264 13 gusting 21 13.3
2015-Jul-28 11:22 221 6 gusting 17 13.9
2015-Jul-28 11:12 232 11 gusting 15 13.3
2015-Jul-28 11:02 236 11 gusting 15 13.3
2015-Jul-28 10:52 230 6 gusting 13 12.8
2015-Jul-28 10:42 209 8 gusting 13 12.8
2015-Jul-28 10:32 224 6 gusting 13 12.8
2015-Jul-28 10:22 240 7 gusting 13 12.8
2015-Jul-28 10:12 228 9 gusting 13 12.8
2015-Jul-28 10:02 225 6 gusting 18 13.3
2015-Jul-28 09:52 246 12 gusting 18 13.3
2015-Jul-28 09:42 257 6 gusting 14 12.8
2015-Jul-28 09:32 257 7 gusting 15 12.8
2015-Jul-28 09:22 200 5 gusting 13 12.2
2015-Jul-28 09:12 236 6 gusting 13 11.7
2015-Jul-28 09:02 261 6 gusting 14 11.7
2015-Jul-28 08:52 200 5 gusting 13 11.7
2015-Jul-28 08:42 217 6 gusting 12 11.7
2015-Jul-28 08:32 231 6 gusting 13 11.1
2015-Jul-28 08:22 225 6 gusting 13 11.1
2015-Jul-28 08:12 224 5 gusting 11 11.1
2015-Jul-28 08:02 232 6 gusting 9 11.7
2015-Jul-28 07:52 221 3 gusting 9 11.7
2015-Jul-28 07:42 238 6 gusting 15 11.7
2015-Jul-28 07:32 258 9 gusting 15 11.7
2015-Jul-28 07:22 225 5 gusting 11 11.1
2015-Jul-28 07:12 252 5 gusting 13 11.1
2015-Jul-28 07:02 241 6 gusting 13 11.1
2015-Jul-28 06:52 194 6 gusting 12 11.1
2015-Jul-28 06:42 226 4 gusting 11 11.1
2015-Jul-28 06:32 225 5 gusting 10 11.1
2015-Jul-28 06:22 245 4 gusting 11 10.6
2015-Jul-28 06:12 238 5 gusting 7 10.6
2015-Jul-28 06:02 223 4 gusting 8 10.0
2015-Jul-28 05:52 216 4 gusting 8 10.6
2015-Jul-28 05:42 229 4 gusting 8 10.0
2015-Jul-28 05:32 227 4 gusting 9 10.0
2015-Jul-28 05:22 209 5 gusting 9 10.0
2015-Jul-28 05:12 221 4 gusting 9 10.0
2015-Jul-28 05:02 211 5 gusting 12 10.0
2015-Jul-28 04:52 219 2 gusting 8 10.0
2015-Jul-28 04:42 221 3 gusting 8 10.0
2015-Jul-28 04:32 225 2 gusting 6 9.4
2015-Jul-28 04:22 217 3 gusting 7 10.0
2015-Jul-28 04:12 220 4 gusting 7 10.0
2015-Jul-28 04:02 230 5 gusting 8 10.0
2015-Jul-28 03:52 225 5 gusting 10 10.0
2015-Jul-28 03:42 211 6 gusting 10 10.0
2015-Jul-28 03:32 227 6 gusting 11 10.0
2015-Jul-28 03:22 231 5 gusting 12 10.0
2015-Jul-28 03:12 231 6 gusting 14 10.0
2015-Jul-28 03:02 225 7 gusting 12 10.0
2015-Jul-28 02:52 233 6 gusting 11 10.0
2015-Jul-28 02:42 237 6 gusting 10 10.0
2015-Jul-28 02:32 243 5 gusting 11 10.0
2015-Jul-28 02:22 238 4 gusting 7 10.0
2015-Jul-28 02:12 230 3 gusting 8 10.0
2015-Jul-28 02:02 229 5 gusting 10 10.0
2015-Jul-28 01:52 226 6 gusting 11 10.0
2015-Jul-28 01:42 211 6 gusting 12 10.0
2015-Jul-28 01:32 211 6 gusting 12 10.0
2015-Jul-28 01:22 226 6 gusting 13 10.0
2015-Jul-28 01:12 227 9 gusting 13 10.0
2015-Jul-28 01:02 205 8 gusting 13 10.6
2015-Jul-28 00:52 245 7 gusting 13 10.6
2015-Jul-28 00:42 218 8 gusting 13 10.6
2015-Jul-28 00:32 219 7 gusting 12 10.6
2015-Jul-28 00:22 249 7 gusting 13 10.6
2015-Jul-28 00:12 263 8 gusting 13 10.6
2015-Jul-28 00:02 238 7 gusting 12 11.1
2015-Jul-27 23:52 236 7 gusting 14 11.1
2015-Jul-27 23:42 217 11 gusting 15 11.1
2015-Jul-27 23:32 228 8 gusting 13 11.7
2015-Jul-27 23:22 208 7 gusting 12 11.7
2015-Jul-27 23:12 256 7 gusting 14 12.2
2015-Jul-27 23:02 218 9 gusting 15 12.2
2015-Jul-27 22:52 261 9 gusting 16 12.8
2015-Jul-27 22:42 242 5 gusting 14 12.8
2015-Jul-27 22:32 226 10 gusting 13 13.3
2015-Jul-27 22:22 225 9 gusting 15 13.3
2015-Jul-27 22:12 240 12 gusting 17 13.9
2015-Jul-27 22:02 236 6 gusting 13 13.9
2015-Jul-27 21:52 235 9 gusting 15 14.4
2015-Jul-27 21:42 207 7 gusting 17 14.4
2015-Jul-27 21:32 232 11 gusting 16 15.0
2015-Jul-27 21:22 238 7 gusting 14 15.6
2015-Jul-27 21:12 221 10 gusting 14 15.6
2015-Jul-27 21:02 229 8 gusting 16 15.6
2015-Jul-27 20:52 260 8 gusting 16 16.1
2015-Jul-27 20:42 226 8 gusting 18 16.1
2015-Jul-27 20:32 236 12 gusting 18 16.1
2015-Jul-27 20:22 244 7 gusting 14 16.7
2015-Jul-27 20:12 265 10 gusting 16 16.7
2015-Jul-27 20:02 247 11 gusting 15 16.7
2015-Jul-27 19:52 223 10 gusting 14 16.7
2015-Jul-27 19:42 236 9 gusting 14 16.7
2015-Jul-27 19:32 256 12 gusting 16 16.7
2015-Jul-27 19:22 276 8 gusting 18 17.2
2015-Jul-27 19:12 232 8 gusting 15 17.2
2015-Jul-27 19:02 227 8 gusting 14 17.2
2015-Jul-27 18:52 236 10 gusting 15 17.2
2015-Jul-27 18:42 219 10 gusting 16 17.2
2015-Jul-27 18:32 206 7 gusting 14 17.2
2015-Jul-27 18:22 227 9 gusting 15 17.2
2015-Jul-27 18:12 251 10 gusting 13 17.2
2015-Jul-27 18:02 219 8 gusting 15 17.2
2015-Jul-27 17:52 260 6 gusting 15 16.7
2015-Jul-27 17:42 227 10 gusting 13 17.2
2015-Jul-27 17:32 282 6 gusting 14 16.7
2015-Jul-27 17:22 276 10 gusting 14 16.7
2015-Jul-27 17:12 198 11 gusting 15 16.7
2015-Jul-27 17:02 256 11 gusting 15 16.1
2015-Jul-27 16:52 291 9 gusting 14 16.1
2015-Jul-27 16:42 255 10 gusting 14 16.1
2015-Jul-27 16:32 221 10 gusting 14 15.6
2015-Jul-27 16:22 238 10 gusting 15 15.0
2015-Jul-27 16:12 236 10 gusting 14 15.0
2015-Jul-27 16:02 257 7 gusting 16 14.4
2015-Jul-27 15:52 258 8 gusting 18 14.4
2015-Jul-27 15:42 269 11 gusting 17 14.4
2015-Jul-27 15:32 211 12 gusting 18 14.4
2015-Jul-27 15:22 226 9 gusting 15 14.4
2015-Jul-27 15:12 249 9 gusting 16 13.9
2015-Jul-27 15:02 271 10 gusting 13 13.9
2015-Jul-27 14:52 203 7 gusting 15 13.3
2015-Jul-27 14:42 280 6 gusting 18 13.3
2015-Jul-27 14:32 243 9 gusting 14 13.3
2015-Jul-27 14:22 253 5 gusting 16 12.8
2015-Jul-27 14:12 254 8 gusting 16 12.8
2015-Jul-27 14:02 271 6 gusting 13 12.2
2015-Jul-27 13:52 284 6 gusting 13 12.2
2015-Jul-27 13:42 264 6 gusting 13 12.2
2015-Jul-27 13:32 238 6 gusting 13 12.2
2015-Jul-27 13:22 248 8 gusting 13 12.2
2015-Jul-27 13:12 227 7 gusting 13 12.2
2015-Jul-27 13:02 272 6 gusting 14 12.2
2015-Jul-27 12:52 242 5 gusting 10 12.2
2015-Jul-27 12:42 232 6 gusting 12 11.7
2015-Jul-27 12:32 229 7 gusting 12 11.7
2015-Jul-27 12:22 265 7 gusting 13 11.7
2015-Jul-27 12:12 266 6 gusting 12 11.7
2015-Jul-27 12:02 244 11 gusting 15 11.1
2015-Jul-27 11:52 253 8 gusting 15 11.1
2015-Jul-27 11:42 239 6 gusting 13 11.1
2015-Jul-27 11:32 228 8 gusting 13 11.1
2015-Jul-27 11:22 277 5 gusting 12 11.1
2015-Jul-27 11:12 254 10 gusting 13 11.1
2015-Jul-27 11:02 246 8 gusting 15 11.1
2015-Jul-27 10:52 255 6 gusting 12 11.1
2015-Jul-27 10:42 266 4 gusting 10 11.1
2015-Jul-27 10:32 240 6 gusting 11 11.1
2015-Jul-27 10:22 251 6 gusting 11 11.1
2015-Jul-27 10:12 250 3 gusting 10 11.1
2015-Jul-27 10:02 240 5 gusting 11 10.6
2015-Jul-27 09:52 288 6 gusting 11 10.6
2015-Jul-27 09:42 236 4 gusting 9 10.6
2015-Jul-27 09:32 239 4 gusting 6 10.6
2015-Jul-27 09:22 234 2 gusting 6 10.6
2015-Jul-27 09:12 225 3 gusting 6 10.6
2015-Jul-27 09:02 225 0 gusting 3 10.0
2015-Jul-27 08:52 225 0 gusting 5 10.0
2015-Jul-27 08:42 223 3 gusting 8 10.0
2015-Jul-27 08:32 234 4 gusting 9 10.0
2015-Jul-27 08:22 237 6 gusting 11 10.0
2015-Jul-27 08:12 212 3 gusting 6 10.0
2015-Jul-27 08:02 257 8 gusting 13 10.0
2015-Jul-27 07:52 250 6 gusting 10 10.0
2015-Jul-27 07:42 227 5 gusting 7 9.4
2015-Jul-27 07:32 233 2 gusting 5 9.4
2015-Jul-27 07:22 230 3 gusting 7 8.9
2015-Jul-27 07:12 245 2 gusting 5 8.9
2015-Jul-27 07:02 243 1 gusting 3 8.3
2015-Jul-27 06:52 243 0 gusting 2 8.3
2015-Jul-27 06:42 243 8.3
2015-Jul-27 06:32 242 8.3
2015-Jul-27 06:22 242 8.3
2015-Jul-27 06:12 242 8.3
2015-Jul-27 06:02 243 8.3
2015-Jul-27 05:52 243 8.9
2015-Jul-27 05:42 243 1 gusting 4 8.9
2015-Jul-27 05:32 243 2 gusting 4 9.4
2015-Jul-27 05:22 243 2 gusting 4 9.4
2015-Jul-27 05:12 243 2 gusting 4 9.4
2015-Jul-27 05:02 242 1 gusting 4 9.4
2015-Jul-27 04:52 243 2 gusting 5 9.4
2015-Jul-27 04:42 241 2 gusting 4 9.4
2015-Jul-27 04:32 240 3 gusting 5 9.4
2015-Jul-27 04:22 232 4 gusting 6 8.9
2015-Jul-27 04:12 240 5 gusting 6 8.9
2015-Jul-27 04:02 236 2 gusting 6 8.9
2015-Jul-27 03:52 224 4 gusting 7 8.3
2015-Jul-27 03:42 236 3 gusting 6 8.3
2015-Jul-27 03:32 245 4 gusting 8 8.9
2015-Jul-27 03:22 232 4 gusting 8 8.3
2015-Jul-27 03:12 230 5 gusting 9 8.3
2015-Jul-27 03:02 219 6 gusting 10 8.3
2015-Jul-27 02:52 236 4 gusting 8 8.3
2015-Jul-27 02:42 228 4 gusting 9 8.3
2015-Jul-27 02:32 253 4 gusting 7 8.3
2015-Jul-27 02:22 252 4 gusting 6 8.3
2015-Jul-27 02:12 265 2 gusting 5 8.3
2015-Jul-27 02:02 254 2 gusting 5 8.3
2015-Jul-27 01:52 264 3 gusting 6 8.3
2015-Jul-27 01:42 273 1 gusting 4 8.3
2015-Jul-27 01:32 273 8.3
2015-Jul-27 01:22 273 0 gusting 5 8.3
2015-Jul-27 01:12 273 1 gusting 4 8.3
2015-Jul-27 01:02 273 2 gusting 4 8.9
2015-Jul-27 00:52 272 0 gusting 4 8.9
2015-Jul-27 00:42 184 2 gusting 4 8.9
2015-Jul-27 00:32 284 8.9
2015-Jul-27 00:22 281 3 gusting 4 8.9
2015-Jul-27 00:12 229 1 gusting 4 8.9
2015-Jul-27 00:02 202 0 gusting 4 8.9
2015-Jul-26 23:52 157 3 gusting 10 8.9
2015-Jul-26 23:42 161 5 gusting 11 8.9
2015-Jul-26 23:32 146 6 gusting 11 8.9
2015-Jul-26 23:22 172 7 gusting 13 8.9
2015-Jul-26 23:12 153 10 gusting 13 8.9
2015-Jul-26 23:02 148 8 gusting 13 9.4
2015-Jul-26 22:52 155 6 gusting 12 9.4
2015-Jul-26 22:42 159 7 gusting 12 10.0
2015-Jul-26 22:32 152 8 gusting 12 10.0
2015-Jul-26 22:22 147 8 gusting 12 10.6
2015-Jul-26 22:12 142 6 gusting 13 10.6
2015-Jul-26 22:02 151 6 gusting 10 11.1
2015-Jul-26 21:52 150 8 gusting 10 11.1
2015-Jul-26 21:42 168 6 gusting 10 11.1
2015-Jul-26 21:32 161 4 gusting 8 11.1
2015-Jul-26 21:22 163 5 gusting 10 11.1
2015-Jul-26 21:12 168 6 gusting 8 11.7
2015-Jul-26 21:02 149 6 gusting 9 11.1